Location: Unspecified
(0.0000°N, 0.0000°E)
Time: 00:14:17
(UTC+00:00)

P064 - Visible Passes

Search period start: 18 May 2026 00:00
Search period end: 28 May 2026 00:00
Orbit: 540 x 1012 km, 39.9° (Epoch: 17 May)

Date Brightness Start Highest point End Pass type
(mag) Time Alt. Az. Time Alt. Az. Time Alt. Az.
18 May 8.2 03:48:48 58° SSE 03:49:27 61° SE 03:55:53 10° ENE visible
18 May 9.2 05:30:08 10° W 05:35:30 25° NW 05:40:34 10° NNE visible
19 May 9.1 03:13:48 39° E 03:13:48 39° E 03:18:20 10° ENE visible
19 May 9.0 04:54:09 18° W 04:58:03 32° NW 05:03:39 10° NNE visible
20 May 10.2 02:38:43 19° E 02:38:43 19° E 02:40:41 10° ENE visible
20 May 8.6 04:19:04 35° WNW 04:20:35 40° NW 04:26:38 10° NNE visible
21 May 8.6 03:43:56 47° NNW 03:43:56 47° NNW 03:49:29 10° NNE visible
22 May 9.4 03:08:43 32° NNE 03:08:43 32° NNE 03:12:14 10° NE visible
22 May 10.1 04:50:17 10° NW 04:51:58 11° NW 04:53:37 10° NNW visible
23 May 10.3 02:33:25 18° NE 02:33:25 18° NE 02:34:53 10° NE visible
23 May 9.9 04:13:45 14° NW 04:14:26 14° NW 04:17:48 10° N visible
24 May 9.9 03:38:22 17° NNW 03:38:22 17° NNW 03:41:15 10° N visible
25 May 10.2 03:02:55 15° N 03:02:55 15° N 03:04:25 10° N visible
26 May 10.7 02:27:24 10° NNE 02:27:24 10° NNE 02:27:25 10° NNE visible
